www.pogodaiklimat.ru

Погода и климат >> Архив погоды >> Самоа >> Lufi-Lufi


ПОГОДА в Lufi-Lufi

  • Прогноз погоды в Lufi-Lufi
  • Монитор погоды в Lufi-Lufi
  • Климат города

АРХИВ ПОГОДЫ в Lufi-Lufi

Время (UTC), дата Ветер
(напр.,м/с)
 
Видим.   Явления Облачность Т
(С)
Тd
(С)
f
(%)
Тe
(С)
Тes
(С)
Комфортность P
(гПа)
Po
(гПа)
Тmin
(С)
Tmax
(С)
R
(мм)
R24
(мм)
S
(см)
09 13.09 В 1 н/о н/о +26.5 +25.6 95 +39 +39 очень
душно
1016.3 1010.8
12 13.09 Ю 1 н/о н/о +23.6 +23.8 100 +32 +32 очень
душно
1015.2 1009.7 +32.7
15 13.09 штиль 0 н/о н/о +22.9 +23.1 100 +32 +32 очень
душно
1015.4 1009.9
18 13.09 Ю 1 н/о н/о +22.8 +23.0 100 +31 +31 очень
душно
1016.2 1010.6
21 13.09 Ю 1 н/о н/о +24.0 +24.2 100 +33 +33 очень
душно
1017.2 1011.7
00 14.09 В 2 н/о н/о +29.5 +25.6 80 +44 +44 опасность
перегрева
1015.4 1010.0 +22.7
03 14.09 В 1 н/о н/о +27.9 +23.0 75 +37 +37 очень
душно
1013.8 1008.4
06 14.09 В 1 н/о н/о +26.2 +22.8 82 +35 +35 очень
душно
1014.7 1009.2
09 14.09 В 2 н/о н/о +25.2 +23.4 90 +34 +34 очень
душно
1015.9 1010.4
12 14.09 ЮВ 2 н/о н/о +25.6 +24.9 96 +36 +36 очень
душно
1014.2 1008.7 +32.1
15 14.09 В 2 н/о н/о +25.4 +23.8 91 +35 +35 очень
душно
1013.1 1007.6
18 14.09 В 2 н/о н/о +26.3 +24.7 91 +37 +37 очень
душно
1014.8 1009.3
21 14.09 В 2 н/о н/о +29.9 +25.1 75 +43 +43 опасность
перегрева
1015.6 1010.2
00 15.09 В 2 н/о н/о +31.1 +25.6 73 +46 +46 опасность
перегрева
1013.9 1008.5 +22.5
03 15.09 В 2 н/о н/о +29.9 +24.9 75 +43 +43 опасность
перегрева
1012.7 1007.3
06 15.09 В 2 н/о н/о +27.1 +23.9 83 +37 +37 очень
душно
1014.3 1008.8
09 15.09 В 2 н/о н/о +27.0 +23.4 81 +37 +37 очень
душно
1014.9 1009.4
12 15.09 В 2 н/о н/о +26.5 +23.9 86 +37 +37 очень
душно
1014.0 1008.5 +30.3
15 15.09 В 2 н/о н/о +26.7 +23.9 85 +37 +37 очень
душно
1013.1 1007.6
18 15.09 В 2 н/о н/о +26.5 +24.1 87 +37 +37 очень
душно
1013.7 1008.2
21 15.09 В 2 н/о н/о +28.6 +25.2 82 +42 +42 опасность
перегрева
1015.4 1010.0
00 16.09 ЮВ 2 н/о н/о +30.7 +25.0 72 +44 +44 опасность
перегрева
1013.7 1008.3 +23.2
03 16.09 В 2 н/о н/о +29.6 +24.6 75 +42 +42 опасность
перегрева
1012.3 1006.9
06 16.09 В 3 н/о н/о +27.3 +23.5 80 +37 +37 очень
душно
1013.7 1008.2
09 16.09 ЮВ 2 н/о н/о +27.1 +23.5 81 +37 +37 очень
душно
1015.3 1009.8
12 16.09 В 2 н/о н/о +27.1 +23.1 79 +36 +36 очень
душно
1014.7 1009.2 +32.1
15 16.09 ЮВ 2 н/о н/о +25.6 +24.4 93 +36 +36 очень
душно
1013.6 1008.1
18 16.09 ЮВ 2 н/о н/о +26.8 +23.8 84 +37 +37 очень
душно
1014.7 1009.2
21 16.09 В 3 н/о н/о +28.8 +25.0 80 +42 +42 опасность
перегрева
1015.3 1009.9
00 17.09 В 2 н/о н/о +31.0 +24.6 69 +44 +44 опасность
перегрева
1014.1 1008.7 +25.9
03 17.09 В 3 н/о н/о +28.6 +24.1 77 +40 +40 очень
душно
1012.6 1007.2
06 17.09 ЮВ 2 н/о н/о +24.2 +23.7 97 +33 +33 очень
душно
1014.0 1008.5
09 17.09 ЮВ 2 н/о н/о +26.5 +24.3 88 +37 +37 очень
душно
1014.5 1009.0
12 17.09 ЮВ 3 н/о н/о +26.5 +23.5 84 +36 +36 очень
душно
1013.7 1008.2 +30.9
15 17.09 ЮВ 2 н/о н/о +25.7 +23.7 89 +35 +35 очень
душно
1012.7 1007.2
18 17.09 ЮВ 3 н/о н/о +26.5 +23.7 85 +36 +36 очень
душно
1013.9 1008.4
21 17.09 В 3 н/о н/о +28.5 +25.1 82 +41 +41 опасность
перегрева
1014.9 1009.5
00 18.09 ЮВ 2 н/о н/о +29.7 +25.4 78 +44 +44 опасность
перегрева
1012.8 1007.4 +24.1
03 18.09 В 3 н/о н/о +26.7 +25.5 93 +39 +39 очень
душно
1012.0 1006.5
06 18.09 В 2 н/о н/о +24.5 +24.7 100 +34 +34 очень
душно
1013.2 1007.7
09 18.09 ЮВ 2 н/о н/о +24.8 +25.0 100 +35 +35 очень
душно
1014.2 1008.7
12 18.09 ЮВ 2 н/о н/о +24.7 +24.9 100 +35 +35 очень
душно
1012.7 1007.2 +31.4
15 18.09 ЮВ 2 н/о н/о +25.3 +25.5 100 +36 +36 очень
душно
1011.6 1006.1
18 18.09 В 2 н/о н/о +25.7 +25.9 100 +38 +38 очень
душно
1012.8 1007.3
21 18.09 В 2 н/о н/о +28.9 +27.3 91 +46 +46 опасность
перегрева
1013.7 1008.3
00 19.09 В 2 н/о н/о +27.8 +28.0 100 +45 +45 опасность
перегрева
1011.9 1006.5 +24.4
03 19.09 ЮВ 2 н/о н/о +27.3 +26.8 97 +42 +42 опасность
перегрева
1010.8 1005.4
06 19.09 СВ 2 н/о н/о +24.5 +24.7 100 +34 +34 очень
душно
1012.0 1006.5
09 19.09 Ю 1 н/о н/о +24.0 +24.2 100 +33 +33 очень
душно
1013.2 1007.7
12 19.09 Ю 1 н/о н/о +24.1 +24.3 100 +33 +33 очень
душно
1012.9 1007.4 +30.3
15 19.09 В 2 н/о н/о +24.3 +24.5 100 +34 +34 очень
душно
1011.7 1006.2
18 19.09 В 1 н/о н/о +23.5 +23.7 100 +32 +32 очень
душно
1013.9 1008.4
21 19.09 Ю 1 н/о н/о +24.3 +24.5 100 +34 +34 очень
душно
1014.5 1009.0
00 20.09 В 1 н/о н/о +28.4 +27.3 94 +45 +45 опасность
перегрева
1010.8 1005.4 +23.9
03 20.09 В 1 н/о н/о +28.8 +26.6 88 +45 +45 опасность
перегрева
1010.2 1004.8
06 20.09 ЮВ 1 н/о н/о +25.0 +25.2 100 +36 +36 очень
душно
1011.8 1006.3

 

Местоположение метеостанции Lufi-Lufi (Самоа): широта -13.88 долгота -171.56 высота над уровнем моря 48 м.

В архиве по умолчанию представлена погода в Lufi-Lufi за последнюю неделю. Архивные данные за месяц целиком и за предыдущие месяцы, начиная с января 2011 года, Вы можете получить, выбрав интересующий диапазон дат из раскрывающегося списка и нажав кнопку "Ввод!".


*Определитесь, кто Вы:
робот инопланетянин человек

Внимание! Время в таблицах - всемирное. Для получения местного времени необходимо прибавить поправку, которая в Lufi-Lufi равна 13 ч.

Смотрите также архив погоды в соседних городах и на ближайших метеорологических станциях:

Погода в Le Mafa (Самоа) (10 км)
Погода в Apia (Американское Самоа) (18 км)
Погода в Togitogiga (Самоа) (28 км)
Погода в Faleolo Int East (Самоа) (47 км)
Погода в Faleolo Int Airport (Американское Самоа) (48 км)
Погода в Faleolo Int Airport (Самоа) (50 км)
Погода в Manono (Самоа) (59 км)
Погода в Maota Int Airport (Самоа) (77 км)
Погода в Le Piu Tai (Самоа) (101 км)
Погода в Mount Talu (Самоа) (130 км)

Пояснения к столбцам:

Ветер - указаны скорость ветра в м/с - средняя за 10 мин, порывы в срок и между сроками (в фигурных скобках) и направление, откуда дует ветер: С - северный, СВ - северо-восточный, В - восточный, ЮВ - юго-восточный, Ю - южный, ЮЗ - юго-западный, З - западный, СЗ - северо-западный.
Видимость - горизонтальная дальность видимости в метрах или километрах. При видимости от 1 до 10 км при отсутствии осадков обычно наблюдается дымка, при ухудшении видимости до 1 км и менее - туман. В сухую погоду видимость может ухудшаться дымом, пылью или мглою.
Явления - указаны атмосферные явления, наблюдавшиеся в срок или в последний час перед сроком; фигурными скобками обозначены явления, наблюдавшиеся между сроками (за 1-3 часа до срока); квадратными скобками обозначены град или гололедные отложения с указанием их диаметра в мм.
Облачность - указаны через наклонную черту общая и нижняя облачность в баллах и высота нижней границы облаков в метрах; квадратными скобками обозначены формы облаков: Ci - перистые, Cs - перисто-слоистые, Cc - перисто-кучевые, Ac - высококучевые, As - высокослоистые, Sc - слоисто-кучевые, Ns - слоисто-дождевые, Cu - кучевые, Cb - кучево-дождевые. Подробнее классификацию облаков см. в Атласе облаков (PDF).
T - Температура воздуха - температура, измеренная на высоте 2 м над землей.
Td - Температура точки росы - температура, при понижении до которой содержащийся в воздухе водяной пар достигнет насыщения.
f - Относительная влажность воздуха - влажноcть воздуха, измеренная на высоте 2 м над землей.
Te - Эффективная температура - температура, которую ощущает одетый по сезону человек в тени. Характеристика душности погоды. При расчете учитывается влияние влажности воздуха и скорости ветра на теплоощущения человека.
Tes - Эффективная температура на солнце - температура, которую ощущает человек, с поправкой на солнечный нагрев. Характеристика знойности погоды. Зависит от высоты солнца над горизонтом, облачности и скорости ветра. Ночью, в пасмурную погоду, а также при ветре 12 м/с и более поправка равна нулю.
P - Атмосферное давление - приведенное к уровню моря атмосферное давление.
Po - Атмосферное давление - измеренное на уровне метеостанции атмосферное давление.
Tmin - Минимальная температура - минимум температуры воздуха на высоте 2 м над землей.
Tmax - Максимальная температура - максимум температуры воздуха на высоте 2 м над землей.
R - Количество осадков - Количество выпавших осадков за период времени, мм. При наведении курсора мыши на число - период времени, за который выпало указанное количество осадков.
R24 - Количество осадков - Количество выпавших осадков за 24 часа, мм.
S - Снежный покров - Высота снежного покрова, см. При наведении курсора мыши на число - состояние снежного покрова и степень покрытия местности в баллах.